Regional Weather Roundup
Issued by NWS Sioux Falls, SD

Home | Current Version | Previous Version | Text Only | Print | Product List | Glossary On
Versions: 1 2 3 4 5 6 7 8 9 10 11 12 13 14 15 16 17 18 19 20 21 22 23 24 25 26 27 28 29 30 31 32 33 34 35 36 37 38 39 40 41 42 43 44 45 46 47 48 49 50
000
ASUS43 KFSD 301210
RWRFSD

WEATHER ROUNDUP FOR SE SOUTH DAKOTA/SW MINNESOTA/NW IOWA
NATIONAL WEATHER SERVICE SIOUX FALLS SD
700 AM CDT SAT MAY 30 2015

NOTE: "FAIR" INDICATES FEW OR NO CLOUDS BELOW 12,000 FEET WITH NO
SIGNIFICANT WEATHER AND OR OBSTRUCTIONS TO VISIBILITY.


SDZ038>040-050-052>070-301300-
SOUTHEAST SOUTH DAKOTA

CITY           SKY/WX    TMP DP  RH WIND       PRES   REMARKS
BROOKINGS      SUNNY     39  34  81 N13       30.27R
CHAMBERLAIN    CLEAR     40  35  84 N9        30.33R
6HR MIN TEMP:  39; 6HR MAX TEMP:  47;

HURON          CLEAR     39  34  82 N14       30.32R
6HR MIN TEMP:  35; 6HR MAX TEMP:  43;

MADISON        FAIR      39  39 100 N12       30.26R
MITCHELL       CLEAR     41  38  89 N9        30.30R
6HR MIN TEMP:  40; 6HR MAX TEMP:  47;

SIOUX FALLS    PTSUNNY   43  38  82 N10       30.24R
6HR MIN TEMP:  43; 6HR MAX TEMP:  48;

WINNER         FAIR      38  35  89 N5        30.32S
YANKTON        PTCLDY    45  39  81 N16       30.24R
$$

MNZ071-072-080-081-089-090-097-098-301300-
SOUTHWEST MINNESOTA

CITY           SKY/WX    TMP DP  RH WIND       PRES   REMARKS
FAIRMONT       CLOUDY    48  39  71 N17G25    30.16R
JACKSON        PTSUNNY   46  43  87 VRB16G22  30.18R
LUVERNE        PTSUNNY   45  39  81 N10G20    30.22R
MARSHALL       SUNNY     43  34  70 N15       30.25R
6HR MIN TEMP:  41; 6HR MAX TEMP:  48;

MONTEVIDEO     SUNNY     43  39  87 N13       30.27R
PIPESTONE      MOSUNNY   41  37  87 N12       30.23R
REDWOOD FALLS  SUNNY     46  42  86 N9        30.23R
TRACY          MOSUNNY   43  41  93 N13       30.24R
WINDOM         MOSUNNY   45  43  93 N16       30.20R
WORTHINGTON    PTSUNNY   45  37  76 N17       30.19S
$$

IAZ001>003-012>014-020>022-031-032-NEZ013-014-SDZ071-301300-
NORTHWEST IOWA

CITY           SKY/WX    TMP DP  RH WIND       PRES   REMARKS
CHEROKEE       CLOUDY    48  45  87 N17G24    30.15S
DENISON        CLOUDY    52  52 100 N10       30.10S
ESTHERVILLE    PTSUNNY   46  43  89 N20       30.15R
LE MARS        CLOUDY    48  43  81 N16       30.19S
ORANGE CITY    CLOUDY    45  41  87 N13G22    30.18R
SHELDON        CLOUDY    46  43  87 N24       30.16S
SIOUX CITY     PTSUNNY   50  42  74 N17       30.17R
6HR MIN TEMP:  50; 6HR MAX TEMP:  52;

SPENCER        PTSUNNY   49  43  80 N18G25    30.15R
6HR MIN TEMP:  49; 6HR MAX TEMP:  53;

STORM LAKE     CLOUDY    50  45  81 N23       30.13S
$$

ABBREVIATIONS USED IN REMARKS
   TC - TEMPERATURE IN CELSIUS
  WCI - WIND CHILL INDEX
   HX - HEAT INDEX
  VSB - VISIBILITY



USA.gov is the U.S. government's official web portal to all federal, state and local government web resources and services.